When you browse on this site, cookies collect data to enhance your experience and personalize the content and advertising you see.
Visit our Privacy Policy to learn more. By continuing to use the site, you agree to this use of cookies and data.

Meteo orario Soledar

Oggi, 20 Settembre, Domenica

Tempo Temperatura Precipitazioni Vento Pressione Umidità
00:00 +10°C° 0 mm 3 m/s 753 mm Hg 62%
01:00 +10°C° 0 mm 2 m/s 753 mm Hg 63%
02:00 +10°C° 0 mm 2 m/s 753 mm Hg 64%
03:00 +9°C° 0 mm 2 m/s 753 mm Hg 65%
04:00 +9°C° 0 mm 2 m/s 753 mm Hg 68%
05:00 +8°C° 0 mm 2 m/s 753 mm Hg 70%
06:00 +8°C° 0 mm 2 m/s 753 mm Hg 73%
07:00 +10°C° 0 mm 3 m/s 754 mm Hg 66%
08:00 +12°C° 0 mm 3 m/s 754 mm Hg 60%
09:00 +14°C° 0 mm 3 m/s 754 mm Hg 54%
10:00 +17°C° 0 mm 4 m/s 754 mm Hg 48%
11:00 +17°C° 0 mm 5 m/s 754 mm Hg 42%
12:00 +20°C° 0 mm 6 m/s 754 mm Hg 35%
13:00 +20°C° 0 mm 5 m/s 754 mm Hg 33%
14:00 +21°C° 0 mm 5 m/s 754 mm Hg 30%
15:00 +21°C° 0 mm 5 m/s 754 mm Hg 28%
16:00 +20°C° 0 mm 4 m/s 754 mm Hg 31%
17:00 +19°C° 0 mm 4 m/s 754 mm Hg 34%
18:00 +18°C° 0 mm 3 m/s 754 mm Hg 37%
19:00 +16°C° 0 mm 3 m/s 755 mm Hg 41%
20:00 +13°C° 0 mm 3 m/s 756 mm Hg 46%
21:00 +12°C° 0 mm 2 m/s 756 mm Hg 51%
22:00 +12°C° 0 mm 2 m/s 757 mm Hg 54%
23:00 +10°C° 0 mm 2 m/s 757 mm Hg 57%

Domani, 21 Settembre, Lunedi

Tempo Temperatura Precipitazioni Vento Pressione Umidità
00:00 +9°C° 0 mm 2 m/s 757 mm Hg 60%
01:00 +8°C° 0 mm 2 m/s 757 mm Hg 61%
02:00 +9°C° 0 mm 1 m/s 757 mm Hg 63%
03:00 +8°C° 0 mm 1 m/s 758 mm Hg 65%
04:00 +8°C° 0 mm 1 m/s 758 mm Hg 66%
05:00 +7°C° 0 mm 1 m/s 758 mm Hg 68%
06:00 +6°C° 0 mm 0 m/s 758 mm Hg 70%
07:00 +9°C° 0 mm 1 m/s 758 mm Hg 61%
08:00 +12°C° 0 mm 1 m/s 758 mm Hg 52%
09:00 +14°C° 0 mm 1 m/s 759 mm Hg 42%
10:00 +16°C° 0 mm 1 m/s 759 mm Hg 36%
11:00 +19°C° 0 mm 1 m/s 758 mm Hg 31%
12:00 +21°C° 0 mm 1 m/s 758 mm Hg 25%
13:00 +21°C° 0 mm 1 m/s 758 mm Hg 23%
14:00 +22°C° 0 mm 1 m/s 757 mm Hg 21%
15:00 +23°C° 0 mm 2 m/s 757 mm Hg 19%
16:00 +21°C° 0 mm 1 m/s 757 mm Hg 21%
17:00 +20°C° 0 mm 1 m/s 757 mm Hg 23%
18:00 +19°C° 0 mm 1 m/s 756 mm Hg 25%
19:00 +16°C° 0 mm 1 m/s 757 mm Hg 27%
20:00 +15°C° 0 mm 1 m/s 757 mm Hg 30%
21:00 +12°C° 0 mm 0 m/s 757 mm Hg 33%
22:00 +11°C° 0 mm 0 m/s 757 mm Hg 34%
23:00 +11°C° 0 mm 0 m/s 757 mm Hg 36%

Dopodomani, 22 Settembre, Martedi

Tempo Temperatura Precipitazioni Vento Pressione Umidità
00:00 +10°C° 0 mm 0 m/s 757 mm Hg 37%
01:00 +10°C° 0 mm 0 m/s 757 mm Hg 38%
02:00 +10°C° 0 mm 0 m/s 757 mm Hg 39%
03:00 +9°C° 0 mm 0 m/s 757 mm Hg 40%
04:00 +9°C° 0 mm 0 m/s 757 mm Hg 41%
05:00 +9°C° 0 mm 0 m/s 757 mm Hg 43%
06:00 +8°C° 0 mm 0 m/s 757 mm Hg 44%
07:00 +11°C° 0 mm 0 m/s 758 mm Hg 38%
08:00 +14°C° 0 mm 0 m/s 758 mm Hg 33%
09:00 +16°C° 0 mm 0 m/s 758 mm Hg 27%
10:00 +18°C° 0 mm 0 m/s 758 mm Hg 24%
11:00 +20°C° 0 mm 0 m/s 758 mm Hg 22%
12:00 +22°C° 0 mm 0 m/s 758 mm Hg 19%
13:00 +23°C° 0 mm 0 m/s 757 mm Hg 18%
14:00 +23°C° 0 mm 0 m/s 757 mm Hg 16%
15:00 +24°C° 0 mm 0 m/s 757 mm Hg 15%
16:00 +22°C° 0 mm 0 m/s 756 mm Hg 17%
17:00 +21°C° 0 mm 0 m/s 756 mm Hg 19%
18:00 +19°C° 0 mm 0 m/s 756 mm Hg 21%
19:00 +18°C° 0 mm 0 m/s 756 mm Hg 23%
20:00 +16°C° 0 mm 0 m/s 756 mm Hg 25%
21:00 +14°C° 0 mm 0 m/s 756 mm Hg 27%
22:00 +14°C° 0 mm 0 m/s 756 mm Hg 28%
23:00 +13°C° 0 mm 0 m/s 756 mm Hg 29%

23 Settembre, Mercoledi

Tempo Temperatura Precipitazioni Vento Pressione Umidità
00:00 +13°C° 0 mm 0 m/s 756 mm Hg 30%
01:00 +12°C° 0 mm 0 m/s 756 mm Hg 31%
02:00 +12°C° 0 mm 0 m/s 756 mm Hg 32%
03:00 +12°C° 0 mm 0 m/s 756 mm Hg 32%
04:00 +11°C° 0 mm 0 m/s 756 mm Hg 33%
05:00 +11°C° 0 mm 0 m/s 756 mm Hg 34%
06:00 +11°C° 0 mm 0 m/s 756 mm Hg 34%
07:00 +14°C° 0 mm 1 m/s 756 mm Hg 30%
08:00 +18°C° 0 mm 1 m/s 756 mm Hg 26%
09:00 +21°C° 0 mm 1 m/s 756 mm Hg 22%
10:00 +23°C° 0 mm 2 m/s 756 mm Hg 19%
11:00 +24°C° 0 mm 2 m/s 756 mm Hg 17%
12:00 +26°C° 0 mm 2 m/s 756 mm Hg 15%
13:00 +27°C° 0 mm 2 m/s 755 mm Hg 14%
14:00 +28°C° 0 mm 2 m/s 755 mm Hg 13%
15:00 +28°C° 0 mm 2 m/s 754 mm Hg 13%
16:00 +27°C° 0 mm 2 m/s 754 mm Hg 14%
17:00 +25°C° 0 mm 2 m/s 754 mm Hg 16%
18:00 +23°C° 0 mm 2 m/s 753 mm Hg 18%
19:00 +21°C° 0 mm 2 m/s 753 mm Hg 20%
20:00 +19°C° 0 mm 2 m/s 754 mm Hg 22%
21:00 +17°C° 0 mm 2 m/s 754 mm Hg 24%
22:00 +17°C° 0 mm 2 m/s 754 mm Hg 25%
23:00 +16°C° 0 mm 2 m/s 754 mm Hg 27%

24 Settembre, Giovedi

Tempo Temperatura Precipitazioni Vento Pressione Umidità
00:00 +15°C° 0 mm 2 m/s 754 mm Hg 28%
01:00 +15°C° 0 mm 2 m/s 754 mm Hg 30%
02:00 +15°C° 0 mm 2 m/s 754 mm Hg 31%
03:00 +14°C° 0 mm 2 m/s 753 mm Hg 33%
04:00 +14°C° 0 mm 2 m/s 754 mm Hg 34%
05:00 +13°C° 0 mm 2 m/s 754 mm Hg 35%
06:00 +13°C° 0 mm 2 m/s 754 mm Hg 36%
07:00 +15°C° 0 mm 2 m/s 754 mm Hg 32%
08:00 +18°C° 0 mm 3 m/s 754 mm Hg 28%
09:00 +20°C° 0 mm 3 m/s 754 mm Hg 24%
10:00 +22°C° 0 mm 3 m/s 754 mm Hg 23%
11:00 +26°C° 0 mm 4 m/s 753 mm Hg 21%
12:00 +28°C° 0 mm 4 m/s 753 mm Hg 19%
13:00 +28°C° 0 mm 4 m/s 753 mm Hg 18%
14:00 +29°C° 0 mm 4 m/s 753 mm Hg 17%
15:00 +29°C° 0 mm 5 m/s 752 mm Hg 16%
16:00 +28°C° 0 mm 4 m/s 752 mm Hg 18%
17:00 +26°C° 0 mm 3 m/s 752 mm Hg 20%
18:00 +24°C° 0 mm 3 m/s 752 mm Hg 21%
19:00 +22°C° 0 mm 3 m/s 752 mm Hg 23%
20:00 +20°C° 0 mm 3 m/s 752 mm Hg 25%
21:00 +19°C° 0 mm 3 m/s 752 mm Hg 27%
22:00 +18°C° 0 mm 3 m/s 752 mm Hg 29%
23:00 +17°C° 0 mm 3 m/s 752 mm Hg 31%

25 Settembre, Venerdi

Tempo Temperatura Precipitazioni Vento Pressione Umidità
00:00 +17°C° 0 mm 3 m/s 752 mm Hg 32%
01:00 +16°C° 0 mm 3 m/s 752 mm Hg 35%
02:00 +16°C° 0 mm 3 m/s 752 mm Hg 37%
03:00 +14°C° 0 mm 3 m/s 752 mm Hg 39%
04:00 +14°C° 0 mm 3 m/s 752 mm Hg 40%
05:00 +14°C° 0 mm 3 m/s 752 mm Hg 42%
06:00 +13°C° 0 mm 3 m/s 752 mm Hg 43%
07:00 +15°C° 0 mm 4 m/s 752 mm Hg 39%
08:00 +19°C° 0 mm 5 m/s 751 mm Hg 35%
09:00 +21°C° 0 mm 6 m/s 751 mm Hg 31%
10:00 +23°C° 0 mm 6 m/s 751 mm Hg 28%
11:00 +26°C° 0 mm 7 m/s 751 mm Hg 25%
12:00 +28°C° 0 mm 8 m/s 750 mm Hg 21%
13:00 +29°C° 0 mm 8 m/s 750 mm Hg 21%
14:00 +29°C° 0 mm 7 m/s 750 mm Hg 20%
15:00 +30°C° 0 mm 7 m/s 749 mm Hg 19%
16:00 +28°C° 0 mm 7 m/s 749 mm Hg 21%
17:00 +27°C° 0 mm 6 m/s 749 mm Hg 23%
18:00 +26°C° 0 mm 5 m/s 748 mm Hg 25%
19:00 +25°C° 0 mm 5 m/s 748 mm Hg 27%
20:00 +23°C° 0 mm 6 m/s 748 mm Hg 29%
21:00 +22°C° 0 mm 7 m/s 748 mm Hg 31%
22:00 +21°C° 0 mm 6 m/s 748 mm Hg 31%
23:00 +21°C° 0 mm 6 m/s 748 mm Hg 32%
Mostrare altro